Weather History for Dothan, AL

Change the Weather History Date:

Thursday, October 24, 2013

  Actual Average Record
Temperature  
Mean Temperature 59 °F 65 °F  
Max Temperature 75 °F 77 °F 90 °F (1941)
Min Temperature 42 °F 53 °F 41 °F (1999)
Degree Days  
Heating Degree Days 6 3  
Month to date heating degree days 11 30  
Since 1 July heating degree days 11 32  
Cooling Degree Days 0 3  
Month to date cooling degree days 140 116  
Year to date cooling degree days 2278 2344  
Growing Degree Days 9 (Base 50)    
Moisture  
Dew Point 42 °F    
Average Humidity 61    
Maximum Humidity 93    
Minimum Humidity 26    
Precipitation  
Precipitation 0.00 in 0.12 in 1.01 in (2008)
Month to date precipitation 0.48 2.62  
Year to date precipitation 66.69 44.60  
Sea Level Pressure  
Sea Level Pressure 30.20 in    
Wind  
Wind Speed 3 mph (NNW)    
Max Wind Speed 9 mph    
Max Gust Speed -    
Visibility 10 miles    
Events      
T = Trace of Precipitation, MM = Missing Value Source: NWS Daily Summary

Daily Weather History Graph

Daily Weather History Graph

Search for Another Location

Airport:

Trip Planner

Search our weather history database for the weather conditions in past years. The results will help you decide how hot, cold, wet, or windy it might be!

Date:

Astronomy

Oct. 24, 2013 Rise Set
Actual Time 6:51 AM CDT 6:00 PM CDT
Civil Twilight 6:26 AM CDT 6:24 PM CDT
Nautical Twilight 5:58 AM CDT 6:53 PM CDT
Astronomical Twilight 5:30 AM CDT 7:21 PM CDT
Moon 10:31 PM CDT (10/24) 11:43 AM CDT (10/24)
Length of Visible Light 11h 58m
Length of Day
11h 08m
Waning Gibbous, 71% of the Moon is Illuminated
Oct 24
Waning Gibbous
Oct 26
Last Quarter
Nov 3
New
Nov 9
First Quarter
Nov 17
Full

Hourly Weather History & Observations

Time (CDT) Temp. Windchill Dew Point Humidity Pressure Visibility Wind Dir Wind Speed Gust Speed Precip Events Conditions
12:53 AM 46.9 °F - 43.0 °F 86% 30.14 in 10.0 mi NNW 4.6 mph - N/A   Clear
1:53 AM 46.9 °F - 43.0 °F 86% 30.14 in 10.0 mi North 4.6 mph - N/A   Clear
2:53 AM 46.9 °F - 42.1 °F 83% 30.14 in 10.0 mi North 3.5 mph - N/A   Clear
3:53 AM 45.0 °F - 41.0 °F 86% 30.17 in 10.0 mi Calm Calm - N/A   Clear
4:53 AM 43.0 °F - 41.0 °F 93% 30.19 in 10.0 mi Calm Calm - N/A   Clear
5:53 AM 43.0 °F 41.3 °F 41.0 °F 93% 30.21 in 10.0 mi NE 3.5 mph - N/A   Clear
6:53 AM 43.0 °F 39.5 °F 39.9 °F 89% 30.23 in 10.0 mi NNE 5.8 mph - N/A   Clear
7:53 AM 48.0 °F - 42.1 °F 80% 30.25 in 10.0 mi NNE 5.8 mph - N/A   Clear
8:53 AM 54.0 °F - 41.0 °F 62% 30.26 in 10.0 mi ENE 4.6 mph - N/A   Clear
9:53 AM 59.0 °F - 37.9 °F 46% 30.27 in 10.0 mi ENE 6.9 mph - N/A   Clear
10:53 AM 64.0 °F - 37.9 °F 38% 30.25 in 10.0 mi Calm Calm - N/A   Clear
11:15 AM 64.4 °F - 37.4 °F 37% 30.25 in 2.5 mi Variable 3.5 mph - N/A   Haze
11:24 AM 64.4 °F - 37.4 °F 37% 30.25 in 10.0 mi Calm Calm - N/A   Clear
11:53 AM 66.9 °F - 37.0 °F 33% 30.24 in 10.0 mi Calm Calm - N/A   Clear
12:53 PM 70.0 °F - 36.0 °F 29% 30.20 in 10.0 mi South 3.5 mph - N/A   Clear
1:53 PM 72.0 °F - 37.9 °F 29% 30.17 in 10.0 mi Variable 4.6 mph - N/A   Clear
2:53 PM 73.9 °F - 39.0 °F 28% 30.16 in 10.0 mi SW 6.9 mph - N/A   Clear
3:53 PM 75.0 °F - 37.9 °F 26% 30.15 in 10.0 mi West 9.2 mph - N/A   Clear
4:53 PM 73.0 °F - 41.0 °F 31% 30.16 in 10.0 mi WNW 5.8 mph - N/A   Clear
5:53 PM 70.0 °F - 44.1 °F 39% 30.16 in 10.0 mi WSW 3.5 mph - N/A   Clear
6:53 PM 60.1 °F - 48.9 °F 67% 30.18 in 10.0 mi Calm Calm - N/A   Clear
7:53 PM 57.0 °F - 50.0 °F 77% 30.20 in 10.0 mi Calm Calm - N/A   Clear
8:53 PM 57.0 °F - 48.9 °F 74% 30.21 in 10.0 mi Calm Calm - N/A   Clear
9:53 PM 55.0 °F - 48.0 °F 77% 30.23 in 10.0 mi Calm Calm - N/A   Clear
10:53 PM 55.0 °F - 48.0 °F 77% 30.23 in 10.0 mi Calm Calm - N/A   Clear
11:53 PM 51.1 °F - 48.0 °F 89% 30.22 in 10.0 mi NW 3.5 mph - N/A   Clear